COSMOS 970 DEB, 64985

Orbit data source: Space-Track

COSMOS 970 DEB, 64985 is space debris in LEO originally from a launch on Wed, 21 Dec 1977 UTC launched from the Tyuratam Missile And Space Complex (TTMTR). Debris objects in space refer to the collection of defunct objects orbiting the Earth. Examples of debris include non-operational satellites, rocket bodies, and fragments generated from explosions, collisions, or faulty payload assembly.

Loading next visibility...
Identifier
64985, 1977-121CW
Orbit
LEO
Country
Flag of CISCIS
Related business
Manufacturer
Unknown
Mission
Spacecraft
Bus & Motor
Unknown
Mass
Unknown
Launch date (UTC)
1977-12-21 (48 years ago)
Launch vehicle
Unknown
Launch site
Tyuratam Missile And Space Complex (TTMTR)
Object type
Payload
Rocket body
Debris
Shape & HBR
Unknown shape, 0.1 m
Radar Cross Section
Small (<0.1 m²)

Expand to show TLE details & history
Last TLE update: 1 week ago

TLE from 1 week ago
0 COSMOS 970 DEB
1 64985U 77121CW  26164.60996799  .00000047  00000-0  17094-3 0  9999
2 64985  65.8598 285.7718 0101862 266.4119 108.3413 13.55862410116182
Epoch: 2026-06-13T14:38Z
TLE epoch observation values (Epoch: 2026-06-13T14:38:21.234Z)
Latitude
14.42655°
Longitude
170.84697°
Altitude
1,076.525 km
Speed
7.303 km/s
True Right ascension
19h 29m 25s
True Declination
14° 20' 50"
Sunlit
Object was in full shadow at epoch
Visualization orbit readout
Latitude
Unknown
Longitude
Unknown
Altitude
Unknown
Speed
Unknown
Apparent Right ascension
Unknown
Apparent Declination
Unknown
Sunlit
N/A
Visualization observer readout
Local Sidereal Time
08:33:02
Azimuth
Unknown
Elevation
Unknown
Doppler factor
Unknown
Orbital elements
Apogee altitude
1,124.952 km
Perigee altitude
973.638 km
Semi-major axis
7,427.432 km
Eccentricity
0.01019
Inclination
65.8598°
RAAN
285.7718°
Arg. of periapsis
266.4119°
True anomaly
109.44476°
Mean anomaly
108.3413°
Eccentric anomaly
108.89348°
Mean motion
3.39067 °/min
Orbital period
106.17 mins
BSTAR
0.00017094
Loading maneuver chart data...
Computing Atmospheric mass density...
Loading historical data...
Loading historical data...
Loading historical data...
Loading historical data...
Loading historical data...
Loading historical data...
Loading historical data...

Documentation

Showing up to 5 results
|